Probability
0 0 0 0 0 0 0 0 0 0 0 0 0 0 0 0 0 0 0 0 0 0 0 0 0 0 0 0 0 0 0 0 0 0 0 0 0 0 0 0 0 0 0 0
0 0 0 0 0 0 0 0 0 0 0 0 0 0 0 0 0 0 0 0 0 0 0 0 0 0 0 0 0 0 0 0 0 0 0 0 0 0 0 0 0 0 0 0
0 0 0 0 0 0 0 0 0 0 0 0 0 0 0 0 0 0 0 0 0 0 0 0 0 0 0 0 0 0 0 0 0 0 0 0 0 0 0 0 0 0 0 0
0 0 0 0 0 0 0 0 0 0 0 0 0 0 0 0 0 0 0 0 0 0 0 0 0 0 0 0 0 0 0 0 0 0 0 0 0 0 0 0 0 0 0 0
0 0 0 0 0 0 0 0 0 0 0 0 0 0 0 0 0 0 0 0 0 0 0 0 0 0 0 0 0 0 0 0 0 0 0 0 0 0 0 0 0 0 0 0
0 0 0 0 0 0 0 0 0 0 0 0 0 0 0 0 0 0 0 0 0 0 0 0 0 0 0 0 0 0 0 0 0 0 0 0 0 0 0 0 0 0 0 0
0 0 0 0 0 0 0 0 0 0 0 0 0 0 0 0 0 0 0 0 0 0 0 0 0 0 0 0 0 0 0 0 0 0 0 0 0 0 0 0 0 0 0 0
0 0 0 0 0 0 0 0 0 0 0 0 0 0 0 0 0 0 0 0 0 0 0 0 0 0 0 0 0 0 0 0 0 0 0 0 0 0 0 0 0 0 0 0
0 0 0 0 0 0 0 0 0 0 0 0 0 0 0 0 0 0 0 0 0 0 0 0 0 0 0 0 0 0 0 0 0 0 0 0 0 0 0 0 0 0 0 0
0 0 0 0 0 0 0 0 0 0 0 0 0 0 0 0 0 0 0 0 0 0 0 0 0 0 0 0 0 0 0 0 0 0 0 0 0 0 0 0 0 0 0 0
0 0 0 0 0 0 0 0 0 0 0 0 0 0 0 0 0 0 0 0 0 0 0 0 0 0 0 0 0 0 0 0 0 0 0 0 0 0 0 0 0 0 0 0
0 0 0 0 0 0 0 0 0 0 0 0 0 0 0 0 0 0 0 0 0 0 0 0 0 0 0 0 0 0 0 0 0 0 0 0 0 0 0 0 0 0 0 0
0 0 0 0 0 0 0 0 0 0 0 0 0 0 0 0 0 0 0 0 0 0 0 0 0 0 0 0 0 0 0 0 0 0 0 0 0 0 0 0 0 0 0 0
0 0 0 0 0 0 0 0 0 0 0 0 0 0 0 0 0 0 0 0 0 0 0 0 0 0 0 0 0 0 0 0 0 0 0 0 0 0 0 0 0 0 0 0
0 0 0 0 0 0 0 0 0 0 0 0 0 0 0 0 0 0 0 0 0 0 0 0 0 0 0 0 0 0 0 0 0 0 0 0 0 0 0 0 0 0 0 0
0 0 0 0 0 0 0 0 0 0 0 0 0 0 0 0 0 0 0 0 0 0 0 0 0 0 0 0 0 0 0 0 0 0 0 0 0 0 0 0 0 0 0 0
0 0 0 0 0 0 0 0 0 0 0 0 0 0 0 0 0 0 0 0 0 0 0 0 0 0 0 0 0 0 0 0 0 0 0 0 0 0 0 0 0 0 0 0
0 0 0 0 0 0 0 0 0 0 0 0 0 0 0 0 0 0 0 0 0 0 0 0 0 0 0 0 0 0 0 0 0 0 0 0 0 0 0 0 0 0 0 0
0 0 0 0 0 0 0 0 0 0 0 0 0 0 0 0 0 0 0 0 0 0 0 0 0 0 0 0 0 0 0 0 0 0 0 0 0 0 0 0 0 0 0 0
0 0 0 0 0 0 0 0 0 0 0 0 0 0 0 0 0 0 0 0 0 0 0 0 0 0 0 0 0 0 0 0 0 0 0 0 0 0 0 0 0 0 0 0
0 0 0 0 0 0 0 0 0 0 0 0 0 0 0 0 0 0 0 0 0 0 0 0 0 0 0 0 0 0 0 0 0 0 0 0 0 0 0 0 0 0 0 0
0 0 0 0 0 0 0 0 0 0 0 0 0 0 0 0 0 0 0 0 0 0 0 0 0 0 0 0 0 0 0 0 0 0 0 0 0 0 0 0 0 0 0 0
0 0 0 0 0 0 0 0 0 0 0 0 0 0 0 0 0 0 0 0 0 0 0 0 0 0 0 0 0 0 0 0 0 0 0 0 0 0 0 0 0 0 0 0
0 0 0 0 0 0 0 0 0 0 0 0 0 0 0 0 0 0 0 0 0 0 0 0 0 0 0 0 0 0 0 0 0 0 0 0 0 0 0 0 0 0 0 0
0 0 0 0 0 0 0 0 0 0 0 0 0 0 0 0 0 0 0 0 0 0 0 0 0 0 0 0 0 0 0 0 0 0 0 0 0 0 0 0 0 0 0 0
0 0 0 0 0 0 0 0 0 0 0 0 0 0 0 0 0 0 0 0 0 0 0 0 0 0 0 0 0 0 0 0 0 0 0 0 0 0 0 0 0 0 0 0
0 0 0 0 0 0 0 0 0 0 0 0 0 0 0 0 0 0 0 0 0 0 0 0 0 0 0 0 0 0 0 0 0 0 0 0 0 0 0 0 0 0 0 0
Height
5705 5703 5702 5701 5699 5697 5695 5693 5692 5691 5689 5686 5683 5681 5679 5677 5674 5672 5670 5668 5665 5663 5660 5658 5655 5652 5650 5646 5643 5640 5637 5633 5630 5627 5624 5621 5617 5613 5610 5606 5602 5598 5594 5590
5703 5701 5699 5698 5696 5694 5692 5690 5687 5686 5684 5681 5679 5677 5674 5672 5670 5667 5665 5662 5660 5657 5655 5652 5649 5646 5643 5639 5635 5632 5629 5626 5622 5619 5616 5612 5609 5605 5601 5597 5593 5589 5585 5580
5700 5697 5696 5695 5693 5690 5688 5686 5683 5681 5680 5677 5675 5672 5670 5667 5665 5662 5659 5657 5654 5651 5649 5646 5642 5639 5636 5632 5628 5625 5621 5618 5615 5611 5608 5604 5601 5597 5593 5588 5584 5580 5575 5570
5695 5694 5692 5693 5688 5686 5683 5681 5678 5676 5673 5671 5669 5667 5664 5661 5659 5656 5653 5650 5648 5645 5642 5639 5635 5632 5629 5625 5621 5617 5614 5610 5607 5603 5600 5596 5592 5588 5584 5579 5575 5570 5565 5560
5689 5687 5686 5686 5683 5679 5677 5676 5672 5670 5667 5665 5662 5660 5658 5655 5652 5649 5646 5643 5640 5637 5634 5631 5628 5624 5621 5618 5614 5610 5606 5602 5599 5595 5591 5587 5583 5579 5574 5570 5565 5560 5555 5550
5683 5680 5679 5680 5676 5672 5671 5669 5666 5663 5660 5658 5655 5653 5652 5647 5644 5641 5638 5635 5632 5629 5626 5623 5619 5616 5613 5609 5605 5601 5598 5594 5590 5586 5582 5578 5574 5569 5564 5560 5554 5549 5544 5540
5676 5673 5672 5671 5667 5665 5664 5662 5658 5655 5652 5650 5647 5645 5642 5639 5636 5633 5630 5627 5624 5621 5618 5614 5611 5607 5604 5600 5596 5592 5589 5585 5581 5577 5573 5568 5564 5559 5554 5550 5544 5539 5534 5529
5668 5666 5667 5662 5659 5657 5655 5652 5649 5646 5643 5640 5638 5635 5633 5630 5627 5624 5621 5618 5615 5612 5609 5605 5601 5598 5595 5591 5587 5583 5579 5575 5571 5567 5563 5559 5554 5549 5544 5539 5534 5529 5524 5518
5661 5661 5657 5652 5649 5647 5644 5642 5639 5637 5634 5631 5629 5627 5624 5621 5618 5614 5611 5608 5605 5602 5598 5595 5591 5588 5585 5581 5577 5573 5569 5565 5561 5557 5553 5549 5544 5539 5534 5529 5524 5519 5513 5508
5651 5650 5646 5642 5639 5636 5633 5631 5629 5626 5624 5621 5619 5616 5614 5610 5607 5604 5601 5598 5594 5591 5588 5585 5581 5577 5574 5571 5567 5563 5559 5555 5551 5547 5543 5538 5534 5529 5524 5519 5514 5509 5503 5498
5640 5639 5635 5633 5629 5626 5623 5620 5617 5615 5612 5610 5607 5605 5602 5599 5596 5593 5590 5587 5584 5580 5577 5574 5570 5567 5563 5560 5556 5552 5548 5545 5540 5536 5532 5528 5523 5519 5514 5509 5503 5498 5493 5488
5628 5626 5621 5621 5618 5614 5611 5609 5606 5603 5601 5598 5595 5593 5590 5587 5584 5581 5578 5575 5572 5569 5566 5562 5559 5556 5552 5548 5545 5541 5538 5534 5530 5526 5521 5517 5512 5508 5502 5498 5493 5488 5483 5478
5613 5611 5608 5607 5605 5601 5598 5596 5593 5591 5588 5586 5583 5580 5577 5575 5572 5569 5566 5563 5560 5557 5554 5551 5548 5544 5541 5537 5534 5530 5526 5522 5518 5514 5510 5506 5501 5496 5491 5487 5481 5477 5472 5467
5600 5597 5595 5593 5591 5589 5586 5583 5580 5578 5575 5572 5569 5567 5564 5562 5559 5556 5554 5551 5548 5545 5542 5539 5536 5532 5529 5526 5522 5519 5515 5511 5507 5503 5499 5495 5490 5485 5480 5475 5471 5465 5461 5456
5586 5583 5581 5579 5577 5575 5572 5569 5567 5565 5562 5559 5556 5553 5551 5549 5546 5544 5541 5538 5535 5532 5529 5526 5523 5520 5517 5513 5510 5507 5503 5500 5496 5492 5488 5483 5479 5474 5469 5464 5460 5455 5450 5445
5572 5569 5567 5565 5563 5561 5558 5556 5553 5551 5548 5546 5543 5540 5538 5535 5533 5531 5528 5525 5523 5520 5517 5514 5511 5508 5505 5501 5498 5495 5492 5488 5484 5480 5476 5472 5467 5463 5458 5454 5449 5444 5439 5434
5558 5556 5554 5552 5549 5547 5544 5542 5540 5537 5535 5532 5530 5527 5525 5523 5520 5518 5515 5512 5510 5507 5504 5501 5498 5495 5492 5489 5486 5483 5480 5476 5473 5469 5465 5461 5456 5452 5447 5443 5438 5433 5428 5423
5543 5541 5540 5538 5536 5534 5532 5529 5527 5524 5522 5519 5517 5515 5512 5510 5507 5505 5502 5500 5497 5494 5491 5488 5486 5483 5480 5477 5474 5471 5468 5465 5461 5458 5454 5450 5445 5441 5437 5432 5427 5422 5417 5412
5529 5528 5526 5524 5522 5520 5518 5516 5514 5512 5509 5507 5504 5502 5500 5497 5494 5492 5490 5487 5485 5482 5479 5476 5474 5471 5468 5465 5462 5459 5456 5453 5450 5446 5442 5439 5434 5430 5426 5421 5416 5411 5406 5401
5516 5514 5512 5510 5509 5507 5505 5504 5501 5499 5497 5494 5492 5489 5487 5485 5482 5479 5477 5475 5472 5469 5467 5464 5462 5459 5456 5453 5450 5448 5445 5442 5438 5435 5432 5428 5424 5419 5415 5410 5405 5400 5395 5390
5503 5501 5499 5498 5496 5495 5492 5490 5489 5487 5484 5482 5479 5476 5474 5472 5469 5467 5464 5463 5460 5457 5455 5452 5450 5447 5444 5442 5439 5436 5433 5431 5427 5424 5421 5417 5413 5409 5404 5399 5395 5390 5385 5381
5489 5488 5486 5484 5483 5482 5480 5478 5475 5473 5471 5469 5466 5464 5461 5459 5457 5454 5452 5449 5448 5445 5443 5441 5438 5436 5433 5431 5428 5425 5422 5420 5417 5413 5410 5406 5402 5398 5394 5390 5385 5381 5376 5372
5476 5474 5473 5471 5469 5468 5467 5464 5462 5460 5458 5456 5453 5451 5448 5446 5444 5441 5440 5438 5435 5433 5431 5429 5427 5424 5422 5420 5417 5414 5412 5409 5406 5403 5400 5396 5392 5389 5385 5381 5377 5372 5368 5363
5462 5460 5459 5457 5455 5454 5452 5451 5448 5446 5444 5442 5440 5437 5435 5433 5432 5429 5427 5425 5423 5421 5420 5418 5415 5413 5411 5409 5407 5404 5401 5399 5396 5393 5390 5387 5383 5380 5376 5372 5368 5364 5360 5355
5447 5446 5445 5443 5441 5439 5437 5435 5434 5432 5430 5429 5427 5424 5422 5420 5419 5417 5416 5414 5412 5410 5408 5406 5405 5403 5401 5399 5396 5394 5391 5389 5386 5384 5381 5378 5374 5371 5368 5364 5360 5356 5352 5347
5432 5431 5429 5428 5426 5423 5421 5420 5419 5418 5416 5415 5414 5412 5410 5408 5406 5405 5404 5402 5401 5399 5398 5396 5394 5393 5391 5389 5387 5384 5382 5380 5377 5375 5372 5369 5366 5363 5360 5356 5352 5348 5344 5340
5416 5415 5414 5412 5411 5408 5406 5404 5404 5403 5401 5400 5399 5399 5397 5396 5395 5393 5392 5391 5390 5388 5387 5386 5384 5383 5381 5379 5377 5375 5373 5371 5369 5366 5364 5361 5358 5355 5352 5348 5345 5341 5337 5333
Wind_Speed
12 13 13 13 13 15 15 16 16 16 17 19 20 20 20 21 21 22 23 23 23 24 25 26 26 26 27 28 29 30 30 30 31 32 33 33 34 35 35 36 36 37 37 38
14 15 15 14 15 16 17 18 18 18 19 21 20 21 21 22 22 23 24 24 24 25 26 26 27 27 28 29 29 29 30 31 32 33 33 33 33 34 35 36 37 38 39 40
16 17 16 16 17 19 19 20 21 21 21 22 22 22 22 23 24 24 25 26 26 27 27 28 28 29 29 29 30 30 31 32 32 32 32 33 34 35 36 37 38 39 40 40
19 20 20 19 20 21 22 23 24 24 24 24 24 24 25 26 26 26 26 27 28 28 29 29 30 30 31 31 31 32 32 32 32 32 33 34 35 36 36 37 39 40 40 40
23 23 23 24 24 25 26 26 27 27 27 27 27 27 28 29 29 29 30 30 30 30 31 32 32 33 33 33 34 33 33 33 34 34 35 36 36 37 38 39 40 40 40 41
27 28 27 28 29 29 29 29 30 30 30 30 31 31 31 31 32 32 33 33 33 33 33 34 34 34 34 34 35 35 35 35 35 36 36 37 38 39 40 40 41 41 41 41
31 31 30 31 32 32 32 32 32 33 33 34 34 34 34 34 34 34 35 35 35 35 35 35 36 36 36 35 35 36 36 37 37 37 37 38 38 39 40 40 41 41 42 41
33 33 33 34 35 35 35 34 35 35 35 36 36 35 36 36 36 36 36 37 37 37 37 37 37 37 37 36 37 37 38 38 38 38 38 39 39 39 39 40 40 41 41 41
36 35 36 37 37 37 38 37 37 37 37 38 38 37 37 37 38 38 39 39 38 38 38 38 38 38 38 38 38 38 39 39 39 39 39 39 40 40 41 41 41 41 41 41
39 38 38 39 39 40 40 40 40 39 39 40 40 40 40 40 40 40 40 39 39 39 38 38 39 39 39 39 39 39 39 39 39 39 40 40 41 41 42 41 41 41 41 41
43 41 42 41 42 42 43 43 42 42 42 42 42 42 42 42 41 41 41 40 40 39 38 39 39 39 40 40 41 40 40 40 40 40 40 41 41 42 42 42 42 41 41 41
45 44 45 44 44 44 44 43 44 44 44 43 43 43 43 43 42 42 42 42 41 41 40 40 40 40 41 41 41 41 41 41 41 41 42 42 42 42 43 42 42 42 42 42
48 48 47 46 46 46 46 46 46 46 46 46 45 45 44 44 44 44 43 42 42 41 41 41 41 41 42 42 41 41 41 41 41 42 42 42 42 43 43 43 43 42 42 42
50 50 49 48 47 47 47 47 46 46 46 46 45 45 45 45 44 44 43 43 42 42 42 42 42 42 42 42 42 42 41 41 41 42 42 43 43 43 43 43 42 42 42 42
50 50 50 49 48 47 47 46 46 46 46 45 46 46 45 45 45 44 44 44 43 43 43 43 43 43 42 42 42 42 42 42 42 42 42 43 43 43 42 42 42 42 42 43
49 49 49 48 48 47 46 46 46 45 45 45 45 45 45 45 44 44 44 44 44 44 44 43 43 43 43 43 43 43 42 42 42 42 42 42 42 42 41 41 41 41 42 42
48 47 47 47 47 46 46 45 44 44 44 44 44 44 44 44 44 44 44 44 44 44 43 43 42 43 43 43 43 43 42 42 42 41 41 41 41 41 41 41 41 41 41 42
48 47 46 46 45 45 44 44 44 44 44 44 43 44 44 44 43 43 43 43 43 42 42 41 42 42 43 43 42 42 41 41 41 41 40 40 40 40 40 40 41 41 41 42
47 46 46 45 45 44 43 43 42 43 43 43 43 43 43 42 42 42 42 42 42 41 41 41 42 42 42 42 41 40 40 40 39 39 39 39 39 39 40 40 40 40 41 41
46 46 46 45 45 45 44 43 43 43 43 43 43 43 42 42 42 42 42 41 42 42 41 41 41 41 40 40 40 39 39 39 38 38 38 38 39 39 39 39 39 39 39 39
46 46 45 45 45 45 45 44 44 44 44 44 44 43 43 43 43 43 42 42 41 42 41 40 40 39 38 38 37 37 37 37 37 37 37 38 38 38 38 38 37 37 36 36
46 45 45 45 45 44 45 46 46 46 45 45 45 44 44 43 42 42 42 42 41 41 40 39 38 37 37 36 36 36 36 36 36 36 36 36 36 36 35 34 34 34 34 35
46 46 46 46 46 46 47 48 48 47 46 45 45 44 43 42 42 42 41 40 40 39 38 37 36 36 35 35 35 35 35 35 35 35 34 34 34 33 32 32 32 33 33 34
47 47 48 48 49 49 49 49 48 47 46 45 44 44 43 42 41 40 40 38 37 37 36 35 35 34 34 34 34 33 33 33 33 33 33 32 31 31 31 31 32 32 33 33
50 50 50 50 51 50 50 49 48 47 46 44 43 43 43 42 40 39 38 37 36 35 34 33 33 33 33 33 32 32 32 31 31 31 31 31 30 30 30 31 31 31 32 32
50 50 51 51 51 50 50 49 47 46 44 43 42 42 41 40 39 38 37 36 35 34 33 32 32 33 32 32 31 31 30 30 29 30 29 29 29 29 30 30 30 30 31 30
51 51 51 50 49 49 49 48 46 44 43 42 41 40 40 39 38 37 37 36 35 34 33 32 32 32 32 31 31 30 29 29 28 28 29 28 28 29 29 29 29 29 29 28
Wind_Direction
308 304 303 302 300 299 302 302 301 301 298 294 294 296 298 298 298 297 296 294 294 295 297 297 297 297 298 298 297 296 295 294 295 295 296 297 298 299 299 299 300 301 300 299
306 303 302 300 298 298 300 300 300 299 297 296 298 298 298 299 299 297 296 296 296 297 299 299 298 298 300 301 299 297 296 295 296 297 298 299 300 300 300 301 301 301 301 301
300 298 298 297 296 296 297 296 296 296 295 294 296 297 298 298 298 297 295 295 295 296 297 298 298 298 299 301 301 299 298 297 298 298 299 300 300 301 302 302 302 302 302 302
297 294 294 296 295 294 294 294 294 293 292 292 293 294 295 296 296 295 294 294 295 296 297 296 297 298 299 300 301 301 300 299 299 299 300 300 301 302 303 303 303 303 303 303
294 292 292 293 293 292 293 293 293 292 291 291 292 293 294 295 294 294 294 294 296 296 297 296 296 297 298 299 300 300 300 300 299 299 299 300 301 302 303 303 304 305 304 304
294 292 292 293 291 291 291 291 290 291 291 291 292 292 292 292 292 292 293 294 295 296 296 296 296 297 298 298 299 299 299 299 300 300 300 300 301 302 303 304 305 304 304 304
292 292 293 293 291 291 291 292 291 291 291 291 291 292 292 291 291 291 293 293 293 294 295 296 296 296 297 298 298 299 299 299 300 300 300 301 302 303 304 305 305 305 305 304
291 293 293 292 290 290 290 290 290 290 290 290 291 291 292 292 291 291 292 292 293 293 294 294 294 295 296 296 297 298 299 299 299 300 301 301 302 304 305 305 306 305 305 305
291 292 291 290 289 289 288 288 288 288 289 289 290 290 291 292 292 291 292 292 292 292 293 293 293 294 295 296 297 297 298 298 299 300 301 301 302 303 304 305 306 306 305 305
291 291 289 289 288 286 286 286 287 287 287 288 289 289 289 290 290 291 291 292 292 291 292 292 292 293 294 295 296 296 297 298 299 300 301 302 302 303 304 304 305 305 305 305
290 290 288 288 287 286 286 286 286 286 287 288 288 289 289 289 289 290 290 291 291 292 292 292 292 293 293 294 295 296 296 297 298 299 301 302 303 303 303 304 305 305 305 306
288 287 287 288 287 287 287 287 286 286 286 287 288 289 289 289 289 289 289 289 290 291 291 291 292 293 294 294 295 296 296 297 298 299 301 301 302 302 303 303 304 305 305 306
287 286 287 287 287 286 286 286 286 286 287 287 287 287 287 287 287 288 288 289 289 290 290 291 292 293 294 295 296 296 297 297 298 299 300 301 301 302 303 303 304 304 305 305
286 286 286 287 287 287 286 286 286 286 286 286 287 287 287 287 287 287 288 289 289 290 290 291 292 292 293 294 295 296 296 297 298 299 300 300 301 302 302 303 304 304 305 306
286 286 286 287 287 287 287 286 286 286 286 287 287 287 286 286 287 287 287 288 289 290 291 291 291 291 292 293 294 295 296 296 297 298 299 300 301 302 302 303 304 304 305 306
286 286 287 287 287 287 287 286 286 286 286 287 286 286 286 287 286 286 287 287 288 289 289 290 290 291 292 293 293 294 295 295 296 297 299 300 301 302 303 304 304 304 305 306
286 286 286 286 286 286 286 286 285 285 285 286 286 286 287 287 287 286 286 287 288 288 289 289 291 291 292 292 293 294 294 295 296 297 299 300 301 303 303 304 304 304 305 306
286 286 286 286 286 285 285 285 285 286 286 286 287 287 288 287 287 288 288 287 287 288 289 290 291 292 292 292 293 294 294 295 295 296 298 300 302 302 303 304 305 305 305 306
285 285 285 285 286 286 285 285 286 286 286 288 288 289 289 289 288 289 289 289 288 288 288 290 291 292 292 292 293 294 294 294 295 296 298 300 301 302 303 304 304 305 306 306
284 284 284 284 284 284 285 285 286 286 287 288 289 289 290 290 289 289 289 289 289 288 290 291 292 292 292 293 293 293 294 295 295 296 298 300 301 303 303 304 304 305 307 307
282 282 282 282 283 283 283 284 286 287 287 288 288 289 289 289 289 289 288 289 289 289 290 291 292 292 292 292 293 293 294 294 295 296 298 300 302 303 304 304 305 306 307 308
280 280 280 280 281 281 282 284 286 287 287 288 288 288 288 288 288 288 288 288 289 289 290 290 291 291 291 292 293 293 293 294 295 297 298 300 302 304 304 305 306 308 309 310
280 279 279 279 279 281 283 284 285 286 287 287 288 287 287 288 288 287 287 287 287 288 289 290 290 291 291 292 293 294 294 294 296 297 299 301 302 303 304 306 307 308 310 312
279 279 279 280 281 281 283 284 284 285 286 286 287 287 287 287 288 287 287 287 287 288 289 289 290 290 291 292 294 294 295 295 297 298 299 300 302 303 304 306 307 309 311 313
278 279 280 281 282 283 283 284 284 284 284 285 285 286 286 287 287 287 287 287 287 288 288 288 288 289 290 292 294 295 296 296 296 298 299 301 302 303 305 306 308 310 312 314
279 281 282 282 283 283 283 284 284 284 283 283 283 283 284 284 285 285 286 286 287 287 286 286 288 289 290 292 294 295 295 296 296 297 299 300 302 303 305 307 308 310 313 315
280 282 282 282 283 283 283 283 282 281 281 281 282 282 282 282 283 283 285 285 286 286 285 284 286 288 290 292 293 294 295 296 296 297 298 300 302 304 306 307 309 312 314 315